EAST Lake Ontario 20NM North Northeast of Rochester, NY (45012)

Conditions for Sunday

Daily
Weekly
Monthly
Marine Data Graph

Current Weather/Wave Observations

Air Temperature: 72° F
Humidity: 74
Wind direction (W Dir): WSW (235 - 244 Degrees)
Wind Speed (W Spd): 7.8 kts (8.9 mph)
Wind Gust (W Spd): 7.8 kts (8.9 mph)
Dominant Wave Period (DWP): 3 sec
Dominant Wave Height (DWH): 1.31 ft
Dominant Wave Range (DWR): exactly 1.3 ft
Wind Wave Period (WWP): 3 sec
Wind Wave Height (WWH): 1.64 ft
Wind Wave Range (WWR): 0.82 - 2.46 ft
Atmospheric Pressure (AP): 29.89 in

Updated: 6:50 PM EDT on September 22, 2019

Marine & Boating Location Search

Enter a coastal zip code for marine weather.

Current Wave Detail Observations

Water Depth: 459 ft
Wave Height: 1.21 ft
Spectral Peak Period: 3.2 sec
Average Wave Period: 2.8 sec
Sampling Interval: 0.6 sec
Wave Record: 2400 sec

Updated: 7:00 PM EDT on September 22, 2019

General Information

Location: 43.621 North -77.406 West
Buoy Type: 3-meter foam buoy
Buoy Hull: 3DV30
Payload: ARES payload
Owned by: NDBC
Windspeed: Measured by obtained from anemometer
Sea Surface: Measured by Intake
Note: For Great Lakes marine forecasts, select: GREAT LAKES FORECASTS

Weather and Wave Data

Time Temp Humidity Wind Dominant Wave Wind Wave Pressure
  Air
(°F)
Water
(°F)
  Dir Speed
(kts)
Speed
(mph)
Period
(sec)
Height
(ft)
Range
(ft)
Period
(sec)
Height
(ft)
Range
(ft)
Atmo.
(in)
Tend.
(in)
20:10 70 68 79 SSE 9.7 11.2 - - - 30.10 -
20:30 70 68 79 SSE 7.8 8.9 - - - 30.10 -
20:40 70 68 79 SSE 7.8 8.9 - - - 30.10 -
20:50 70 67 80 SSE 7.8 8.9 0.33 exactly 0.3 - - - 30.11 -
21:10 70 67 79 SSE 7.8 8.9 - - - 30.11 -
21:20 70 67 79 SSE 7.8 8.9 - - - 30.11 -
21:30 70 67 79 SSE 7.8 8.9 - - - 30.11 -
21:40 70 67 79 SSE 7.8 8.9 - - - 30.11 -
22:20 69 67 83 SSE 7.8 8.9 - - - 30.10 -
22:40 69 67 81 SSE 7.8 8.9 - - - 30.11 -
22:50 69 67 80 South 7.8 8.9 0.33 exactly 0.3 - - - 30.11 -
23:00 69 67 79 South 7.8 8.9 - - - 30.11 -
23:10 69 67 78 South 7.8 8.9 - - - 30.11 -
23:20 69 67 76 South 7.8 8.9 - - - 30.10 -
23:30 69 67 76 South 7.8 8.9 - - - 30.10 -
23:40 69 67 77 South 7.8 8.9 - - - 30.10 -
23:50 69 67 77 South 7.8 8.9 0.33 exactly 0.3 - - - 30.10 -
00:20 69 67 77 South 7.8 8.9 - - - 30.09 -
00:30 69 67 78 South 7.8 8.9 - - - 30.09 -
00:40 69 67 77 South 7.8 8.9 - - - 30.08 -
00:50 69 67 78 South 7.8 8.9 0.33 exactly 0.3 - - - 30.09 -
01:10 69 67 78 South 7.8 8.9 - - - 30.08 -
01:20 69 67 79 South 7.8 8.9 - - - 30.08 -
01:30 69 67 79 South 5.8 6.7 - - - 30.08 -
01:40 69 67 79 South 5.8 6.7 - - - 30.08 -
02:00 69 67 80 South 7.8 8.9 - - - 30.08 -
02:10 69 67 79 South 7.8 8.9 - - - 30.08 -
02:20 69 67 79 South 7.8 8.9 - - - 30.08 -
02:30 69 67 78 SSW 7.8 8.9 - - - 30.08 -
02:40 69 67 78 SSW 7.8 8.9 - - - 30.08 -
03:10 69 67 79 SSW 7.8 8.9 - - - 30.07 -
03:20 69 67 79 SSW 7.8 8.9 - - - 30.07 -
03:30 68 67 84 SSW 7.8 8.9 - - - 30.06 -
04:00 68 67 85 South 7.8 8.9 - - - 30.05 -
04:10 68 67 85 South 7.8 8.9 - - - 30.05 -
04:20 68 67 85 SSW 7.8 8.9 - - - 30.05 -
04:30 68 67 85 SSW 7.8 8.9 - - - 30.04 -
04:50 68 67 85 SSW 9.7 11.2 0.66 exactly 0.7 - - - 30.04 -
05:00 68 67 84 SSW 9.7 11.2 - - - 30.04 -
05:10 68 67 85 SSW 9.7 11.2 - - - 30.04 -
05:20 68 67 85 SSW 9.7 11.2 - - - 30.05 -
05:30 68 67 85 SSW 9.7 11.2 - - - 30.05 -
05:40 68 67 85 SSW 9.7 11.2 - - - 30.05 -
05:50 68 67 85 SSW 9.7 11.2 0.66 exactly 0.7 - - - 30.05 -
06:20 68 67 85 SSW 9.7 11.2 - - - 30.05 -
06:30 68 67 85 SSW 9.7 11.2 - - - 30.05 -
06:40 68 67 85 SSW 9.7 11.2 - - - 30.05 -
07:10 68 67 85 SSW 9.7 11.2 - - - 30.05 -
07:20 68 67 85 SSW 9.7 11.2 - - - 30.05 -
07:40 68 67 85 SSW 9.7 11.2 - - - 30.04 -
07:50 68 67 85 SSW 9.7 11.2 3 0.98 exactly 1.0 3 1.64 0.82 - 2.46 30.04 -
08:00 69 67 81 SSW 9.7 11.2 - - - 30.04 -
08:20 69 67 82 SSW 9.7 11.2 - - - 30.04 -
08:30 69 67 82 SSW 9.7 11.2 - - - 30.04 -
08:40 69 67 82 SSW 9.7 11.2 - - - 30.04 -
08:50 69 67 82 SSW 9.7 11.2 3 0.98 exactly 1.0 3 1.64 0.82 - 2.46 30.04 -
09:00 69 67 83 SSW 9.7 11.2 - - - 30.04 -
09:10 69 67 84 SW 9.7 11.2 - - - 30.04 -
09:50 69 67 84 SSW 7.8 8.9 3 0.98 exactly 1.0 3 1.64 0.82 - 2.46 30.04 -
10:10 69 67 84 SW 9.7 11.2 - - - 30.04 -
10:30 69 67 86 SW 7.8 8.9 - - - 30.04 -
11:10 69 67 88 SSW 5.8 6.7 - - - 30.04 -
11:20 69 67 88 SSW 5.8 6.7 - - - 30.03 -
11:30 69 67 88 SSW 5.8 6.7 - - - 30.03 -
11:40 69 67 89 SSW 5.8 6.7 - - - 30.02 -
11:50 70 67 85 SSW 5.8 6.7 0.66 exactly 0.7 - - - 30.02 -
12:20 70 67 86 SSW 5.8 6.7 - - - 30.01 -
12:30 70 67 86 SSW 5.8 6.7 - - - 30.01 -
12:40 70 67 86 South 5.8 6.7 - - - 30.00 -
12:50 70
-
87 South 5.8 6.7 0.66 exactly 0.7 - - -
-
-
13:00 70
-
87 South 5.8 6.7 - - - 30.00 -
13:20 71 68 84 SSW 5.8 6.7 - - - 29.99 -
13:40 71 67 85 South 5.8 6.7 - - - 29.98 -
13:50 71 68 84 South 5.8 6.7 0.33 exactly 0.3 - - - 29.97 -
14:20 71 68 85 South 5.8 6.7 - - - 29.96 -
14:30 72 68 81 South 5.8 6.7 - - - 29.95 -
14:40 72 68 81 South 5.8 6.7 - - - 29.95 -
15:00 73 68 78 South 5.8 6.7 - - - 29.94 -
15:10 72 68 81 South 7.8 8.9 - - - 29.94 -
15:30 74 68 73 South 7.8 8.9 - - - 29.93 -
15:40 74 69 73 South 7.8 8.9 - - - 29.93 -
16:10 75 69 66 SW 7.8 8.9 - - - 29.92 -
16:20 74 69 68 SW 9.7 11.2 - - - 29.91 -
16:30 74 68 67 SW 11.7 13.4 - - - 29.91 -
16:40 74 68 68 SW 9.7 11.2 - - - 29.91 -
16:50 73 68 70 SW 9.7 11.2 0.33 exactly 0.3 - - - 29.91 -
17:10 74 68 66 SW 11.7 13.4 - - - 29.90 -
17:20 74
-
65 SW 11.7 13.4 - - - 29.90 -
17:40 73 68 69 SW 9.7 11.2 - - - 29.89 -
18:10 74 68 65 WSW 9.7 11.2 - - - 29.89 -
18:20 74 68 64 WSW 9.7 11.2 - - - 29.89 -
18:30 75 68 61 WSW 9.7 11.2 - - - 29.89 -
18:40 74 68 66 WSW 7.8 8.9 - - - 29.89 -
18:50 72 68 74 WSW 7.8 8.9 3 1.31 exactly 1.3 3 1.64 0.82 - 2.46 29.89 -

Detailed Wave Spectra

Time Water Depth Wave Height Spectral Peak Period Average Wave Period Sampling Interval Wave Record
20:00 459 ft 0.20 ft 2.5 sec 0.6 sec 2400 sec
21:00 459 ft 0.30 ft 2.3 sec 0.6 sec 2400 sec
22:00 459 ft 0.46 ft 2.3 sec 0.6 sec 2400 sec
01:00 459 ft 0.33 ft 2.3 sec 0.6 sec 2400 sec
03:00 459 ft 0.36 ft 2.3 sec 0.6 sec 2400 sec
06:00 459 ft 0.72 ft 2.3 sec 0.6 sec 2400 sec
10:00 459 ft 0.95 ft 2.7 sec 2.6 sec 0.6 sec 2400 sec
11:00 459 ft 0.75 ft 2.6 sec 0.6 sec 2400 sec
12:00 459 ft 0.62 ft 2.5 sec 0.6 sec 2400 sec
14:00 459 ft 0.39 ft 2.5 sec 0.6 sec 2400 sec
17:00 459 ft 0.43 ft 2.5 sec 0.6 sec 2400 sec
18:00 459 ft 0.79 ft 2.4 sec 0.6 sec 2400 sec
19:00 459 ft 1.21 ft 3.2 sec 2.8 sec 0.6 sec 2400 sec